DW6761 Weather Reports


Display with metric or nautical units.
time (UTC)temp
F
wind
direction
speed
MPH
gust
MPH
rain 1hr
in
rain 24hr
in
rain mn
in
humidity
%
barometer
mb
20260507003036 45 159 0.0 0.0 0.00 0.00 0.00 97 1018.1
20260507001625 45 122 1.0 0.0 0.00 0.00 0.00 97 1018.0
20260507000109 46 127 0.0 0.0 0.00 0.00 0.00 97 1017.9
20260506234538 45 96 1.0 0.0 0.00 0.00 0.00 97 1017.9
20260506233017 46 144 1.0 0.0 0.00 0.00 0.00 97 1017.9
20260506231518 46 126 0.0 0.0 0.00 0.00 0.00 97 1017.7
20260506230030 46 142 1.0 0.0 0.00 0.00 0.00 97 1017.6
20260506224559 46 138 1.0 0.0 0.00 0.00 0.00 97 1017.6
20260506223146 46 145 0.0 0.0 0.00 0.00 0.00 97 1017.4
20260506221641 46 136 0.0 0.0 0.00 0.00 0.00 97 1017.5
20260506220026 46 126 0.0 0.0 0.00 0.00 0.00 97 1017.4
20260506214609 46 138 0.0 0.0 0.00 0.00 0.00 97 1017.5
20260506213029 46 111 1.0 0.0 0.00 0.00 0.00 97 1017.4
20260506211527 46 155 0.0 0.0 0.00 0.00 0.00 97 1017.3
20260506210008 46 146 0.0 0.0 0.00 0.00 0.00 97 1017.2
20260506204534 46 132 0.0 0.0 0.00 0.00 0.00 97 1017.1
20260506203029 46 132 0.0 0.0 0.00 0.00 0.00 97 1017.0
20260506201531 46 144 0.0 0.0 0.00 0.00 0.00 97 1016.9
20260506200026 46 153 0.0 0.0 0.00 0.00 0.00 97 1016.8
20260506194539 46 187 0.0 0.0 0.00 0.00 0.00 97 1016.8
20260506193144 46 124 1.0 0.0 0.00 0.00 0.00 97 1016.7
20260506191610 47 135 0.0 0.0 0.00 0.00 0.00 97 1016.6
20260506190030 47 125 0.0 0.0 0.00 0.00 0.00 97 1016.3
20260506184530 47 144 0.0 0.0 0.00 0.00 0.00 97 1016.2
20260506183115 47 123 0.0 0.0 0.00 0.00 0.00 97 1016.0
20260506181537 47 128 0.0 0.0 0.00 0.00 0.00 97 1015.9
20260506180025 47 182 0.0 0.0 0.00 0.00 0.00 97 1015.7
20260506174526 47 156 0.0 0.0 0.00 0.00 0.00 97 1015.6
20260506173032 47 207 0.0 0.0 0.00 0.00 0.00 97 1015.5
20260506171505 47 155 0.0 0.0 0.00 0.00 0.00 97 1015.4
20260506170007 47 181 0.0 0.0 0.00 0.00 0.00 97 1015.3
20260506164504 47 142 0.0 0.0 0.00 0.00 0.00 97 1015.3
20260506163039 47 138 0.0 0.0 0.00 0.00 0.00 97 1015.2
20260506161638 47 127 0.0 0.0 0.00 0.00 0.00 97 1015.1
20260506160110 47 118 0.0 0.0 0.00 0.00 0.00 97 1015.0
20260506154525 47 126 0.0 0.0 0.00 0.00 0.00 97 1015.1
20260506153033 47 118 0.0 0.0 0.00 0.00 0.00 97 1015.0
20260506151525 47 122 0.0 0.0 0.00 0.00 0.00 97 1015.1
20260506150025 47 145 0.0 0.0 0.00 0.00 0.00 97 1015.0
20260506144528 47 138 0.0 0.0 0.00 0.00 0.00 97 1014.8
20260506143017 47 112 1.0 0.0 0.00 0.00 0.00 97 1014.7
20260506141521 47 116 0.0 0.0 0.00 0.00 0.00 97 1014.7
20260506140043 47 136 1.0 0.0 0.00 0.00 0.00 97 1014.7
20260506134548 48 117 0.0 0.0 0.00 0.00 0.00 97 1014.5
20260506133052 47 140 0.0 0.0 0.00 0.00 0.00 96 1014.6
20260506131553 47 115 0.0 0.0 0.00 0.00 0.00 97 1014.5
20260506130045 47 127 0.0 0.0 0.00 0.00 0.00 97 1014.5
20260506124517 47 123 0.0 0.0 0.00 0.00 0.00 97 1014.4
20260506123056 47 115 0.0 0.0 0.00 0.00 0.00 97 1014.3
20260506121523 47 90 0.0 0.0 0.00 0.00 0.00 97 1014.1
20260506120106 47 169 1.0 0.0 0.00 0.00 0.00 96 1014.0
20260506114647 48 117 1.0 0.0 0.00 0.00 0.00 96 1013.8
20260506113004 48 144 0.0 0.0 0.00 0.00 0.00 97 1013.7
20260506111554 48 111 0.0 0.0 0.00 0.00 0.00 96 1013.8
20260506110057 48 126 0.0 0.0 0.00 0.00 0.00 96 1013.7
20260506104637 48 114 1.0 0.0 0.00 0.00 0.00 96 1013.7
20260506103129 48 120 1.0 0.0 0.00 0.00 0.00 97 1013.6
20260506101528 48 136 1.0 0.0 0.00 0.00 0.00 96 1013.4
20260506100126 49 134 1.0 0.0 0.00 0.00 0.00 96 1013.4
20260506094533 49 119 0.0 0.0 0.00 0.00 0.00 96 1013.2
20260506093027 50 121 0.0 0.0 0.00 0.00 0.00 97 1012.9
20260506091613 50 136 0.0 0.0 0.00 0.00 0.00 97 1012.9
20260506090127 50 132 0.0 0.0 0.00 0.00 0.00 97 1012.6
20260506084547 50 149 1.0 0.0 0.00 0.00 0.00 96 1012.5
20260506083018 50 140 1.0 0.0 0.00 0.00 0.00 96 1012.5
20260506081523 50 131 1.0 0.0 0.00 0.00 0.00 96 1012.4
20260506073113 51 159 0.0 0.0 0.00 0.00 0.00 97 1012.2
20260506071629 51 171 0.0 0.0 0.00 0.00 0.00 97 1012.0
20260506070126 51 202 0.0 0.0 0.00 0.00 0.00 97 1012.0
20260506061547 50 171 0.0 0.0 0.00 0.00 0.00 96 1011.8
20260506044519 50 237 0.0 0.0 0.00 0.00 0.00 96 1011.8
20260506043105 50 226 0.0 0.0 0.00 0.00 0.00 96 1011.6
20260506041631 50 224 0.0 0.0 0.00 0.00 0.00 96 1011.7
20260506040006 50 219 0.0 0.0 0.00 0.00 0.00 96 1011.7
20260506034531 50 227 0.0 0.0 0.00 0.00 0.00 96 1011.6
20260506033025 50 227 0.0 0.0 0.00 0.00 0.00 96 1011.6
20260506031525 51 215 0.0 0.0 0.00 0.00 0.00 96 1011.9
20260506030025 51 224 1.0 0.0 0.00 0.00 0.00 96 1012.0
20260506024643 51 244 0.0 0.0 0.00 0.00 0.00 96 1012.2
20260506023016 51 232 0.0 0.0 0.00 0.00 0.00 96 1012.3
20260506021645 51 235 0.0 0.0 0.00 0.00 0.00 96 1012.3
20260506020111 51 213 0.0 0.0 0.00 0.00 0.00 96 1012.5
20260506014534 51 222 0.0 0.0 0.00 0.00 0.00 95 1012.4
20260506013015 51 232 0.0 0.0 0.00 0.00 0.00 96 1012.7
20260506011635 51 217 0.0 0.0 0.00 0.00 0.00 95 1012.7
20260506010108 52 240 0.0 0.0 0.00 0.00 0.00 95 1012.7
20260506004608 52 244 0.0 0.0 0.00 0.00 0.00 95 1012.9